C/2024 C1 ( PanSTARRS )

Japanese version
Home page
Updated on May 15, 2024

---------------------------------------------------------------------

* Profile

Discovery Date February 9, 2024
Magnitude 21.2 mag
Discoverer Pan-STARRS 2 telescope (Haleakala)

* Pictures

* Orbital Elements

Epoch 2024 Mar. 31.0 TT = JDT 2460400.5
T 2024 Aug. 30.91390 TT                                 Rudenko
q   4.4129310            (2000.0)            P               Q
n   0.02874053     Peri.   94.46768     -0.96915113     -0.03237965
a  10.5553558      Node    83.81293     -0.07295657     -0.90921766
e   0.5819249      Incl.   14.22690     +0.23542181     -0.41506000
P  34.3
>From 64 observations 2023 Dec. 12-2024 May 14, mean residual 0".2.

* Magnitudes Graph

        m1 = 11.0 + 5 log d + 10.0 log r

---------------------------------------------------------------------

The orbital elements are published on M.P.E.C. 2024-J304.
The magnitudes graphs are made with Comet for Windows.

---------------------------------------------------------------------

Copyright(C) Seiichi Yoshida (comet@aerith.net). All rights reserved.